Location: Newark
(49.8348°N, 24.0280°E)
Time: 05:21:59
(UTC+00:00)

Transit 4A - Visible Passes

Search period start: 29 January 2020 00:00
Search period end: 08 February 2020 00:00
Orbit: 872 x 973 km, 66.8° (Epoch: 28 January)

Date Brightness Start Highest point End Pass type
(mag) Time Alt. Az. Time Alt. Az. Time Alt. Az.
29 Jan 9.7 03:14:13 10° SSE 03:19:15 29° ESE 03:24:14 10° NE visible
29 Jan 7.8 04:59:17 10° SW 05:05:14 64° NW 05:11:05 10° NNE visible
30 Jan 9.0 03:22:51 10° S 03:28:23 41° ESE 03:33:51 10° NE visible
30 Jan 8.1 05:08:56 10° WSW 05:14:42 48° NW 05:20:23 10° NNE visible
31 Jan 10.7 01:52:04 10° ESE 01:52:28 10° E 01:52:51 10° E visible
31 Jan 8.4 03:31:45 10° SSW 03:37:36 57° ESE 03:43:21 10° NE visible
31 Jan 8.4 05:18:44 10° WSW 05:24:13 37° NW 05:29:40 10° NNE visible
01 Feb 10.3 01:58:14 11° SE 02:01:25 16° ESE 02:04:47 10° ENE visible
01 Feb 7.9 03:41:51 15° SSW 03:46:52 79° ESE 03:52:45 10° NE visible
02 Feb 9.8 02:08:37 20° SE 02:10:26 23° ESE 02:14:55 10° ENE visible
02 Feb 7.7 03:52:12 22° SW 03:56:13 77° NW 04:02:06 10° NE visible
03 Feb 9.2 02:18:39 31° SE 02:19:32 32° ESE 02:24:41 10° NE visible
03 Feb 7.9 04:02:13 25° WSW 04:05:37 57° NW 04:11:25 10° NNE visible
04 Feb 8.6 02:28:27 46° ESE 02:28:41 46° ESE 02:34:16 10° NE visible
04 Feb 8.2 04:12:01 25° W 04:15:06 44° NW 04:20:42 10° NNE visible
05 Feb 10.6 00:54:33 10° E 00:54:33 10° E 00:54:46 10° E visible
05 Feb 8.1 02:38:06 64° ESE 02:38:06 64° ESE 02:43:44 10° NE visible
05 Feb 8.5 04:21:39 22° W 04:24:40 34° NW 04:29:58 10° NNE visible
06 Feb 10.4 01:04:06 14° ENE 01:04:06 14° ENE 01:05:29 10° ENE visible
06 Feb 7.8 02:47:37 79° NE 02:47:37 79° NE 02:53:06 10° NE visible
06 Feb 8.8 04:31:09 18° WNW 04:34:17 28° NNW 04:39:16 10° NNE visible
07 Feb 10.1 01:13:31 18° ENE 01:13:31 18° ENE 01:15:27 10° NE visible
07 Feb 7.8 02:57:03 66° NNW 02:57:03 66° NNW 03:02:27 10° NNE visible
07 Feb 9.1 04:40:35 14° WNW 04:43:58 23° NNW 04:48:33 10° NNE visible
